When you browse on this site, cookies collect data to enhance your experience and personalize the content and advertising you see.
Visit our Privacy Policy to learn more. By continuing to use the site, you agree to this use of cookies and data.
  • In Czech Republic
  • List of Countries
  • For 7 days
  • Water Temperature
  • Weather Map
  • Weather Widgets
  • user-avatar
    Login

    Hourly Weather Kipungo

    Today, 25 January, Saturday

    Time Temperature Precipitation Wind Pressure Humidity
    00:00 +21°C° 0.2 mm 1 mps 653 mmHg 93%
    01:00 +21°C° 0.2 mm 1 mps 653 mmHg 94%
    02:00 +20°C° 0.4 mm 1 mps 653 mmHg 94%
    03:00 +20°C° 0.4 mm 1 mps 652 mmHg 94%
    04:00 +18°C° 0.4 mm 0 mps 652 mmHg 95%
    05:00 +18°C° 0 mm 0 mps 652 mmHg 94%
    06:00 +19°C° 0 mm 0 mps 653 mmHg 92%
    07:00 +19°C° 0 mm 0 mps 654 mmHg 91%
    08:00 +23°C° 0.1 mm 1 mps 654 mmHg 82%
    09:00 +25°C° 0.1 mm 1 mps 654 mmHg 74%
    10:00 +27°C° 0.1 mm 2 mps 655 mmHg 65%
    11:00 +28°C° 0 mm 2 mps 654 mmHg 60%
    12:00 +30°C° 0 mm 2 mps 654 mmHg 55%
    13:00 +31°C° 0 mm 1 mps 654 mmHg 50%
    14:00 +30°C° 0 mm 2 mps 653 mmHg 52%
    15:00 +30°C° 0 mm 2 mps 653 mmHg 54%
    16:00 +30°C° 0 mm 2 mps 652 mmHg 56%
    17:00 +28°C° 0.2 mm 1 mps 652 mmHg 62%
    18:00 +26°C° 0.2 mm 1 mps 652 mmHg 68%
    19:00 +25°C° 0.2 mm 1 mps 652 mmHg 74%
    20:00 +24°C° 0.7 mm 1 mps 653 mmHg 80%
    21:00 +23°C° 0.7 mm 1 mps 653 mmHg 85%
    22:00 +21°C° 0.7 mm 2 mps 653 mmHg 91%
    23:00 +20°C° 0.5 mm 2 mps 653 mmHg 93%

    Tomorrow, 26 January, Sunday

    Time Temperature Precipitation Wind Pressure Humidity
    00:00 +20°C° 0.5 mm 2 mps 653 mmHg 94%
    01:00 +19°C° 0.5 mm 2 mps 653 mmHg 96%
    02:00 +20°C° 0.1 mm 1 mps 652 mmHg 96%
    03:00 +20°C° 0.1 mm 1 mps 652 mmHg 96%
    04:00 +20°C° 0.1 mm 1 mps 652 mmHg 95%
    05:00 +20°C° 0 mm 1 mps 652 mmHg 93%
    06:00 +20°C° 0 mm 1 mps 653 mmHg 91%
    07:00 +19°C° 0 mm 0 mps 653 mmHg 89%
    08:00 +23°C° 0 mm 1 mps 654 mmHg 79%
    09:00 +25°C° 0 mm 1 mps 654 mmHg 69%
    10:00 +27°C° 0 mm 2 mps 654 mmHg 59%
    11:00 +28°C° 0 mm 2 mps 654 mmHg 55%
    12:00 +30°C° 0 mm 2 mps 654 mmHg 52%
    13:00 +31°C° 0 mm 2 mps 654 mmHg 49%
    14:00 +31°C° 0.1 mm 2 mps 654 mmHg 49%
    15:00 +31°C° 0.1 mm 2 mps 653 mmHg 50%
    16:00 +31°C° 0.1 mm 2 mps 653 mmHg 50%
    17:00 +29°C° 0.2 mm 2 mps 653 mmHg 59%
    18:00 +27°C° 0.2 mm 2 mps 653 mmHg 67%
    19:00 +25°C° 0.2 mm 2 mps 653 mmHg 76%
    20:00 +24°C° 2.4 mm 2 mps 653 mmHg 81%
    21:00 +23°C° 2.4 mm 1 mps 653 mmHg 86%
    22:00 +22°C° 2.4 mm 1 mps 653 mmHg 92%
    23:00 +21°C° 1.3 mm 1 mps 653 mmHg 92%

    Day after tomorrow, 27 January, Monday

    Time Temperature Precipitation Wind Pressure Humidity
    00:00 +21°C° 1.3 mm 1 mps 653 mmHg 92%
    01:00 +19°C° 1.3 mm 2 mps 653 mmHg 92%
    02:00 +19°C° 0.2 mm 2 mps 653 mmHg 93%
    03:00 +19°C° 0.2 mm 2 mps 652 mmHg 94%
    04:00 +20°C° 0.2 mm 1 mps 652 mmHg 96%
    05:00 +19°C° 0 mm 2 mps 653 mmHg 95%
    06:00 +19°C° 0 mm 2 mps 653 mmHg 94%
    07:00 +20°C° 0 mm 2 mps 653 mmHg 94%
    08:00 +23°C° 0 mm 2 mps 654 mmHg 83%
    09:00 +25°C° 0 mm 2 mps 655 mmHg 73%
    10:00 +27°C° 0 mm 2 mps 655 mmHg 62%
    11:00 +29°C° 0.5 mm 2 mps 655 mmHg 59%
    12:00 +30°C° 0.5 mm 2 mps 654 mmHg 56%
    13:00 +31°C° 0.5 mm 2 mps 654 mmHg 52%
    14:00 +29°C° 1.6 mm 2 mps 654 mmHg 60%
    15:00 +28°C° 1.6 mm 2 mps 653 mmHg 67%
    16:00 +26°C° 1.6 mm 2 mps 652 mmHg 74%
    17:00 +25°C° 1.8 mm 2 mps 653 mmHg 79%
    18:00 +24°C° 1.8 mm 2 mps 653 mmHg 84%
    19:00 +22°C° 1.8 mm 1 mps 653 mmHg 89%
    20:00 +21°C° 1.8 mm 2 mps 653 mmHg 90%
    21:00 +20°C° 1.8 mm 2 mps 654 mmHg 91%
    22:00 +20°C° 1.8 mm 3 mps 654 mmHg 92%
    23:00 +20°C° 0.2 mm 2 mps 654 mmHg 93%

    28 January, Tuesday

    Time Temperature Precipitation Wind Pressure Humidity
    00:00 +20°C° 0.2 mm 1 mps 653 mmHg 94%
    01:00 +20°C° 0.2 mm 1 mps 653 mmHg 95%
    02:00 +20°C° 0 mm 1 mps 653 mmHg 96%
    03:00 +20°C° 0 mm 1 mps 653 mmHg 96%
    04:00 +20°C° 0 mm 1 mps 652 mmHg 96%
    05:00 +20°C° 0 mm 1 mps 653 mmHg 95%
    06:00 +20°C° 0 mm 1 mps 653 mmHg 93%
    07:00 +19°C° 0 mm 0 mps 653 mmHg 92%
    08:00 +23°C° 0 mm 1 mps 654 mmHg 82%
    09:00 +25°C° 0 mm 1 mps 654 mmHg 73%
    10:00 +27°C° 0 mm 2 mps 655 mmHg 64%
    11:00 +28°C° 0.7 mm 2 mps 655 mmHg 64%
    12:00 +28°C° 0.7 mm 2 mps 654 mmHg 64%
    13:00 +28°C° 0.7 mm 2 mps 653 mmHg 64%
    14:00 +28°C° 2.3 mm 2 mps 653 mmHg 66%
    15:00 +28°C° 2.3 mm 1 mps 652 mmHg 68%
    16:00 +28°C° 2.3 mm 1 mps 652 mmHg 70%
    17:00 +26°C° 1.5 mm 1 mps 652 mmHg 76%
    18:00 +24°C° 1.5 mm 1 mps 652 mmHg 83%
    19:00 +22°C° 1.5 mm 1 mps 652 mmHg 89%
    20:00 +22°C° 1.2 mm 1 mps 652 mmHg 90%
    21:00 +22°C° 1.2 mm 1 mps 653 mmHg 91%
    22:00 +21°C° 1.2 mm 1 mps 653 mmHg 91%
    23:00 +21°C° 0.4 mm 1 mps 653 mmHg 92%

    29 January, Wednesday

    Time Temperature Precipitation Wind Pressure Humidity
    00:00 +20°C° 0.4 mm 1 mps 652 mmHg 94%
    01:00 +20°C° 0.4 mm 1 mps 652 mmHg 95%
    02:00 +20°C° 0 mm 1 mps 652 mmHg 95%
    03:00 +20°C° 0 mm 1 mps 651 mmHg 95%
    04:00 +19°C° 0 mm 1 mps 651 mmHg 95%
    05:00 +20°C° 0 mm 1 mps 652 mmHg 94%
    06:00 +20°C° 0 mm 1 mps 652 mmHg 93%
    07:00 +21°C° 0 mm 1 mps 652 mmHg 92%
    08:00 +22°C° 0.5 mm 1 mps 653 mmHg 85%
    09:00 +24°C° 0.5 mm 2 mps 653 mmHg 79%
    10:00 +26°C° 0.5 mm 2 mps 654 mmHg 72%
    11:00 +27°C° 0.7 mm 2 mps 654 mmHg 68%
    12:00 +28°C° 0.7 mm 3 mps 653 mmHg 64%
    13:00 +29°C° 0.7 mm 3 mps 653 mmHg 60%
    14:00 +29°C° 0.7 mm 3 mps 653 mmHg 59%
    15:00 +29°C° 0.7 mm 3 mps 652 mmHg 59%
    16:00 +29°C° 0.7 mm 2 mps 652 mmHg 59%
    17:00 +28°C° 0.3 mm 2 mps 652 mmHg 66%
    18:00 +26°C° 0.3 mm 1 mps 652 mmHg 73%
    19:00 +24°C° 0.3 mm 1 mps 652 mmHg 80%
    20:00 +23°C° 1.2 mm 1 mps 652 mmHg 85%
    21:00 +21°C° 1.2 mm 2 mps 652 mmHg 90%
    22:00 +20°C° 1.2 mm 2 mps 652 mmHg 95%
    23:00 +19°C° 0.7 mm 2 mps 652 mmHg 95%

    30 January, Thursday

    Time Temperature Precipitation Wind Pressure Humidity
    00:00 +19°C° 0.7 mm 2 mps 652 mmHg 96%
    01:00 +19°C° 0.7 mm 2 mps 652 mmHg 97%
    02:00 +19°C° 0.8 mm 2 mps 652 mmHg 97%
    03:00 +19°C° 0.8 mm 1 mps 651 mmHg 97%
    04:00 +17°C° 0.8 mm 0 mps 651 mmHg 97%
    05:00 +19°C° 0.3 mm 1 mps 652 mmHg 96%
    06:00 +20°C° 0.3 mm 1 mps 652 mmHg 96%
    07:00 +20°C° 0.3 mm 1 mps 653 mmHg 95%
    08:00 +22°C° 0.5 mm 1 mps 653 mmHg 87%
    09:00 +24°C° 0.5 mm 1 mps 654 mmHg 80%
    10:00 +26°C° 0.5 mm 1 mps 654 mmHg 72%
    11:00 +26°C° 1.6 mm 1 mps 654 mmHg 71%
    12:00 +27°C° 1.6 mm 1 mps 653 mmHg 71%
    13:00 +28°C° 1.6 mm 1 mps 653 mmHg 70%
    14:00 +27°C° 2.2 mm 1 mps 652 mmHg 75%
    15:00 +26°C° 2.2 mm 2 mps 652 mmHg 80%
    16:00 +24°C° 2.2 mm 2 mps 651 mmHg 84%
    17:00 +22°C° 1.3 mm 3 mps 651 mmHg 88%
    18:00 +21°C° 1.3 mm 3 mps 652 mmHg 91%
    19:00 +20°C° 1.3 mm 3 mps 652 mmHg 95%
    20:00 +20°C° 1 mm 3 mps 652 mmHg 95%
    21:00 +20°C° 1 mm 2 mps 653 mmHg 96%
    22:00 +19°C° 1 mm 2 mps 653 mmHg 96%
    23:00 +20°C° 1 mm 1 mps 653 mmHg 96%
    Show more